Date,TemperatureHighF,TemperatureAvgF,TemperatureLowF,DewpointHighF,DewpointAvgF,DewpointLowF,HumidityHigh,HumidityAvg,HumidityLow,PressureMaxIn,PressureMinIn,WindSpeedMaxMPH,WindSpeedAvgMPH,GustSpeedMaxMPH,PrecipitationSumIn
2013-1-16,46.0,37.4,30.1,35.7,30.8,26.8,92,77,67,32.33,23.88,6,3,13,0.00
2013-1-17,43.3,32.0,22.4,35.9,28.4,20.6,95,87,74,32.49,20.01,8,3,11,0.00
2013-1-18,45.9,36.4,30.5,36.3,30.7,27.0,92,80,65,32.34,20.01,17,10,24,0.00
2013-1-19,51.2,38.6,25.2,37.5,29.7,16.4,89,71,53,32.34,21.70,13,6,21,0.00
2013-1-20,25.2,19.7,16.3,16.8,12.0,9.1,84,72,57,31.51,20.02,9,4,15,0.00
2013-1-21,18.0,12.1,9.1,13.8,6.7,-1.5,92,79,57,31.50,20.07,10,4,19,0.00
2013-2-11,36.9,30.9,24.8,24.7,23.1,21.8,89,74,57,32.27,20.01,12,5,21,0.00
2013-2-12,46.1,31.7,20.9,29.5,22.9,18.1,91,72,39,32.37,19.99,15,6,22,0.00
2013-2-13,51.4,36.0,24.0,32.4,27.2,21.1,90,73,41,32.27,21.74,15,6,22,0.00
2013-2-14,43.1,34.7,20.5,31.7,26.1,15.9,91,72,44,32.27,20.02,20,12,30,0.00
2013-2-15,34.1,22.8,12.7,26.4,17.6,9.6,93,81,55,32.49,20.01,16,6,28,0.00
2013-2-16,39.1,24.7,9.5,28.7,19.7,7.0,100,82,57,30.44,30.07,15,6,20,0.01
2013-2-17,60.6,38.3,22.0,35.4,28.1,19.0,92,70,33,30.07,22.49,15,6,23,0.00
2013-2-18,39.1,32.4,22.4,31.9,24.5,17.2,87,73,56,32.31,20.04,19,8,31,0.00
2013-2-19,27.3,19.2,12.3,18.0,7.0,0.7,81,61,32,32.43,20.04,18,8,28,0.00
2013-2-20,22.9,15.6,6.4,13.0,6.5,1.3,81,67,54,31.24,20.10,15,10,20,0.00
2013-2-21,22.5,20.2,18.8,19.4,14.5,9.2,100,79,57,32.44,20.02,16,11,23,0.00
2013-2-22,19.8,13.7,1.2,19.4,10.9,-2.0,100,88,83,32.45,20.01,12,6,17,0.00
2013-2-23,31.6,16.3,-0.3,27.5,13.3,-3.6,91,88,83,30.14,29.07,13,6,18,0.00
2013-2-24,37.2,29.4,17.2,30.4,25.9,14.8,94,87,71,30.14,27.41,8,3,12,0.00
2013-2-25,27.7,27.3,26.9,25.6,25.3,24.6,93,92,90,30.15,30.10,8,3,14,0.00
2013-3-1,31.2,25.5,17.6,21.2,18.5,14.4,87,75,62,31.46,20.01,9,4,18,0.00
2013-3-2,39.4,26.1,13.1,28.1,20.6,10.7,93,80,56,30.45,30.14,11,4,16,0.00
2013-3-3,46.0,34.8,26.1,36.7,30.3,24.2,93,84,67,30.14,25.42,13,8,17,0.00
2013-3-4,39.5,33.2,27.6,33.9,28.9,18.8,95,85,60,32.31,20.02,17,6,21,0.00
2013-3-5,33.8,26.8,19.7,20.2,17.8,15.4,85,69,55,32.41,20.07,24,14,34,0.00
2013-3-6,39.3,25.8,14.6,24.2,19.6,11.7,91,78,51,32.45,20.05,12,5,17,0.00
2013-3-7,55.2,35.7,22.9,31.0,25.6,19.6,95,70,35,32.27,19.99,17,10,26,0.00
2013-3-8,58.3,42.7,27.3,46.1,35.0,24.8,95,76,53,32.26,20.01,17,10,23,0.00
2013-3-9,59.6,47.0,32.0,54.8,44.3,30.0,96,91,74,32.35,19.87,15,10,23,0.08
2013-3-10,32.1,24.0,20.3,30.3,22.6,18.6,96,94,93,30.08,23.50,18,13,33,0.00
2013-3-11,31.4,21.6,9.5,26.7,17.7,7.2,100,85,67,32.29,20.01,12,7,20,0.20
2013-3-12,35.7,29.3,20.1,26.2,22.7,16.8,92,77,62,32.40,19.51,18,8,26,0.26
2013-3-13,39.2,27.3,15.7,31.4,22.6,12.8,93,83,68,32.36,20.04,11,4,15,0.16
2013-3-14,61.4,42.7,28.3,48.2,35.4,25.3,91,77,53,32.30,20.01,10,3,13,0.02
2013-3-15,66.1,50.3,37.4,48.9,41.2,33.7,89,73,45,32.26,21.61,13,5,20,0.00
2013-3-16,42.5,31.1,26.4,39.0,26.6,22.1,92,83,74,32.16,20.01,11,6,20,0.00
2013-3-17,46.8,33.5,24.8,35.0,27.9,21.8,92,80,60,30.20,23.58,15,10,22,0.03
2013-3-18,41.2,34.7,28.5,34.4,23.7,14.8,96,66,38,32.42,20.01,22,12,33,0.05
2013-3-19,50.5,35.8,25.8,34.3,22.8,19.0,87,62,32,32.36,20.01,16,5,26,0.00
2013-3-20,38.2,26.1,17.0,20.0,14.8,11.5,83,64,37,32.44,20.02,9,5,16,0.00
2013-3-21,30.9,26.3,21.1,25.1,19.6,13.9,91,76,63,32.36,20.01,16,10,20,0.01
2013-3-22,31.3,28.7,25.4,28.5,24.9,18.1,92,86,63,32.39,20.01,11,5,15,0.00
2013-3-23,31.7,29.8,28.5,29.6,26.5,23.5,95,88,78,32.50,17.30,12,6,18,0.00
2013-3-24,29.1,24.7,20.5,26.9,19.1,13.9,94,80,67,32.37,20.01,18,12,30,0.00
2013-3-25,28.7,25.2,21.7,22.1,20.1,17.1,90,81,70,32.48,20.08,16,10,26,0.00
2013-3-26,42.1,27.3,13.9,24.7,18.7,10.7,88,72,44,32.38,20.07,8,4,17,0.00
2013-3-27,53.4,37.5,26.3,34.0,27.2,22.8,88,69,40,32.39,20.05,12,6,19,0.00
2013-3-28,60.8,42.1,26.1,35.5,29.8,23.4,93,66,29,32.26,20.05,10,4,16,0.00
2013-3-29,69.3,53.7,34.4,42.3,35.5,29.3,91,55,26,32.37,20.03,15,7,23,0.00
2013-3-30,64.7,55.1,48.3,53.4,46.1,36.0,95,74,38,32.29,23.46,22,6,30,0.59
2013-3-31,50.2,49.9,49.8,45.0,44.8,44.5,83,82,81,29.30,23.83,9,7,15,0.00
2013-4-1,40.7,34.6,27.2,23.6,21.0,18.9,76,58,42,32.41,23.89,7,4,15,0.06
2013-4-2,51.7,36.6,24.4,30.4,23.4,16.2,77,61,37,32.40,20.09,9,2,13,0.00
2013-4-3,53.2,39.2,26.3,30.8,25.7,22.4,87,62,36,32.42,20.09,14,6,23,0.00
2013-4-4,62.4,44.9,26.4,38.6,32.4,23.6,91,65,39,32.37,20.05,15,6,20,0.00
2013-4-5,70.4,51.9,30.7,40.5,34.2,27.2,90,55,26,32.38,21.79,22,12,32,0.00
2013-4-6,61.5,53.0,47.6,44.7,41.9,37.5,81,67,48,32.18,21.53,19,12,28,0.00
2013-4-8,67.0,63.1,59.7,60.6,59.0,57.2,94,87,78,31.93,23.30,14,10,21,0.01
2013-4-9,61.1,42.5,31.3,58.8,40.8,29.5,95,94,91,32.26,19.92,18,9,25,0.27
2013-4-10,32.0,29.7,28.2,30.7,28.5,26.8,97,95,93,30.04,17.19,13,8,19,0.01
2013-4-11,34.6,30.0,25.5,31.5,27.4,24.3,96,90,81,29.91,22.71,18,12,25,0.01
2013-4-12,45.2,34.8,28.7,33.3,28.8,25.3,89,79,59,31.41,19.95,16,11,24,0.03
2013-4-13,59.8,43.2,25.7,43.6,35.3,24.0,94,75,52,30.10,26.99,18,8,26,0.09
2013-4-14,61.7,50.4,40.0,52.2,40.4,29.6,93,71,37,29.72,23.35,25,13,33,0.00
2013-4-15,44.6,38.1,32.5,31.3,27.3,21.7,79,65,54,30.14,19.93,13,7,22,0.00
2013-4-16,47.7,41.1,34.2,34.0,29.1,25.8,81,64,47,30.94,20.05,15,9,21,0.00
2013-4-17,39.7,37.6,34.3,38.7,36.0,32.2,96,94,90,32.45,23.64,11,7,22,0.78
2013-4-18,35.0,31.6,28.4,33.8,28.5,25.9,100,89,77,32.42,20.01,22,16,34,0.25
2013-4-19,46.5,35.9,26.8,28.8,24.9,21.4,86,66,41,32.47,18.16,16,10,28,0.02
2013-4-20,46.9,37.4,26.5,33.0,27.7,22.4,87,69,48,32.48,16.46,17,8,23,0.00
2013-4-21,67.9,52.9,41.0,48.4,40.4,33.0,91,66,38,32.45,20.01,23,11,38,0.29
2013-4-22,52.6,41.1,31.4,50.0,39.2,28.3,97,93,88,32.48,20.01,19,8,29,0.98
2013-4-23,37.1,31.4,27.4,28.0,24.7,20.5,88,77,57,32.47,16.45,11,7,26,0.02
2013-4-24,57.9,39.2,24.1,37.7,28.4,21.6,90,69,28,32.27,20.06,22,8,32,0.00
2013-4-25,69.3,49.9,28.6,39.4,32.5,25.5,90,57,26,32.37,20.05,24,11,34,0.00
2013-4-26,69.1,56.4,45.5,51.1,43.5,37.6,90,63,41,32.40,23.30,16,10,27,0.00
2013-4-27,72.2,55.2,41.8,52.6,45.9,40.1,97,76,33,32.38,23.41,12,5,19,0.00
2013-4-28,82.1,63.7,45.5,56.6,49.6,43.4,95,65,30,32.22,21.64,19,10,28,0.00
2013-4-29,83.6,66.9,53.4,57.0,48.4,43.3,82,55,25,32.08,22.92,12,5,19,0.00
2013-4-30,71.7,65.7,54.2,56.5,47.7,33.8,66,53,37,23.53,23.05,21,10,30,0.09
2013-5-1,53.7,38.4,32.3,43.2,35.5,31.0,96,90,64,32.34,23.49,15,9,26,0.63
2013-5-2,50.1,40.7,32.8,35.3,30.8,27.2,95,69,47,32.40,20.09,11,6,24,0.35
2013-5-3,43.9,34.7,30.0,31.1,27.5,25.7,84,75,57,32.46,20.11,9,4,15,0.00
2013-5-14,100.1,90.1,74.1,55.3,47.5,37.7,47,25,12,25.07,22.58,25,16,40,0.01
2013-5-15,82.8,72.6,61.1,52.5,44.5,38.6,55,37,25,23.31,22.78,18,10,25,0.00
2013-5-16,82.7,70.7,56.8,61.1,56.5,47.6,92,63,42,23.45,22.77,14,6,22,0.00
2013-5-17,86.1,72.9,58.3,61.4,57.7,54.5,92,62,37,23.35,22.75,12,6,22,0.00
2013-5-18,84.2,71.7,59.7,68.8,63.1,56.2,92,75,57,24.03,22.76,20,11,28,0.56
2013-5-19,75.8,65.0,57.3,67.6,60.6,54.2,94,86,69,23.33,22.95,21,6,40,0.49
2013-5-20,72.8,63.3,56.3,59.5,55.0,49.4,92,76,49,23.54,22.93,19,13,29,0.37
2013-5-21,59.8,55.9,50.1,54.5,48.9,45.5,89,78,64,29.07,23.21,18,12,26,0.00
2013-5-22,61.2,53.5,48.0,51.3,47.9,45.3,93,82,68,32.01,23.30,14,8,22,0.00
2013-5-23,70.1,57.3,50.5,53.0,48.5,46.3,90,74,44,30.72,23.34,14,6,24,0.00
2013-5-24,74.5,62.5,48.5,56.8,50.8,44.9,93,68,47,32.11,23.41,23,11,32,0.00
2013-5-25,80.1,68.7,59.2,71.0,62.9,55.4,96,83,65,27.75,23.18,19,11,27,0.30
2013-5-26,81.1,71.5,66.0,71.4,66.5,63.3,92,84,70,23.40,23.15,16,11,24,0.05
2013-5-27,78.0,67.7,59.0,67.8,62.9,57.6,97,85,63,28.98,23.16,25,11,34,0.11
2013-5-28,78.6,68.4,61.0,67.6,62.5,58.6,97,83,58,24.82,22.96,16,4,29,0.49
2013-5-29,75.9,68.1,60.9,70.2,64.6,57.6,95,89,74,23.23,22.96,23,12,37,1.30
2013-5-30,78.0,65.1,58.9,64.4,57.3,45.9,94,78,42,23.45,22.91,20,10,31,0.05
2013-5-31,79.1,66.6,55.3,54.0,48.8,40.7,88,56,27,24.93,23.05,21,11,30,0.00
2013-6-1,63.8,57.5,51.7,52.5,49.0,45.8,86,73,61,31.88,23.30,18,12,29,0.00
2013-6-2,69.0,54.9,44.3,46.6,44.2,38.2,94,70,33,32.20,23.59,6,3,17,0.00
2013-6-6,71.9,66.1,56.1,53.9,49.6,46.3,76,56,45,23.59,23.15,8,3,16,0.00
2013-6-7,76.7,63.8,49.8,53.2,48.1,42.1,88,60,30,31.92,23.13,9,3,25,0.00
2013-6-8,74.6,64.5,57.4,67.0,57.0,49.8,92,77,64,27.69,23.36,15,7,25,0.43
2013-6-9,74.4,65.5,58.0,59.6,56.5,53.6,90,74,54,27.76,23.43,20,9,29,0.00
2013-6-10,87.5,69.7,52.0,61.7,56.3,50.0,96,67,32,30.61,23.10,17,5,24,0.00
2013-6-11,94.4,80.6,66.7,66.5,62.7,58.9,89,58,31,23.71,22.83,21,10,31,0.00
2013-6-12,87.4,76.9,62.1,68.5,61.3,52.5,86,60,37,24.92,22.31,18,8,28,0.01
2013-6-13,75.3,65.3,55.7,60.9,55.5,48.1,89,72,44,23.59,23.16,12,4,16,0.03
2013-6-14,95.3,75.4,62.8,71.7,63.4,54.0,85,69,36,23.54,22.82,23,12,34,0.01
2013-6-15,80.6,74.1,67.1,68.3,65.4,60.3,93,75,54,23.36,23.16,19,6,28,0.00
2013-6-16,84.5,74.2,63.7,69.1,62.7,57.5,98,71,45,23.51,22.96,14,4,19,0.00
2013-6-17,86.0,76.2,64.3,59.6,57.0,53.3,76,53,34,23.48,22.37,7,1,23,0.00
2013-6-18,80.9,71.9,63.2,63.0,58.9,54.8,85,65,47,23.52,22.41,12,5,18,0.13
2013-6-19,87.7,75.0,61.3,66.3,61.6,58.4,93,66,41,27.90,22.55,15,8,23,0.00
2013-6-20,92.5,80.4,67.9,72.1,67.8,61.3,86,67,49,28.46,22.78,18,12,29,0.00
2013-6-21,98.1,85.2,75.1,72.1,67.3,59.4,79,58,29,28.18,22.70,20,14,33,0.00
2013-6-22,91.8,79.1,65.7,70.7,65.4,57.8,91,64,40,27.55,22.44,21,11,32,0.07
2013-6-23,79.1,72.2,62.8,70.8,65.9,58.2,94,81,58,27.60,22.56,16,7,30,1.13
2013-6-24,84.4,75.1,68.8,73.9,70.0,65.7,95,85,64,26.02,22.57,19,7,28,0.76
2013-6-25,88.2,78.2,67.7,78.1,70.5,60.9,93,78,61,32.15,22.83,15,7,25,0.57
2013-6-26,91.6,79.9,70.3,73.2,67.5,54.9,94,70,30,27.62,22.63,7,2,15,0.00
2013-6-27,82.7,74.3,67.9,70.9,67.1,64.1,91,79,60,25.00,22.31,17,4,41,0.69
2013-6-28,83.8,75.6,66.8,67.5,61.5,54.8,92,65,38,25.14,22.34,10,4,21,0.00
2013-6-29,79.2,70.8,61.8,60.1,57.1,52.6,84,64,42,23.47,22.48,13,6,27,0.00
2013-6-30,74.8,67.3,57.6,60.5,55.5,50.4,91,68,44,23.54,21.86,8,2,21,0.00
2013-7-1,79.4,68.8,55.7,58.2,52.6,47.7,83,59,35,24.41,20.24,8,2,15,0.00
2013-7-2,80.8,69.0,57.3,60.3,56.6,52.2,88,67,40,23.61,20.24,8,2,18,0.00
2013-7-3,82.9,69.7,56.4,61.9,57.5,49.9,94,69,33,25.05,22.40,6,1,11,0.00
2013-7-4,86.1,72.5,58.2,61.0,56.5,53.1,87,60,34,23.71,20.18,15,7,25,0.00
2013-7-5,89.3,76.2,66.1,64.6,59.7,56.3,79,59,35,27.63,22.71,15,8,28,0.00
2013-7-6,87.8,77.0,69.5,68.4,63.3,57.5,75,63,50,27.70,22.73,17,9,26,0.00
2013-7-7,92.5,80.8,71.0,72.0,67.3,63.1,80,65,44,32.46,22.72,12,6,19,0.00
2013-7-8,89.2,80.1,73.6,75.8,70.0,64.6,88,72,54,32.26,21.44,10,4,17,0.00
2013-7-9,94.0,83.1,73.5,74.2,70.3,62.4,80,66,46,32.38,22.80,21,3,33,0.01
2013-7-10,83.1,76.3,67.6,70.9,66.3,63.3,88,72,54,32.47,22.55,8,3,15,0.00
2013-7-11,86.6,74.6,65.2,64.8,62.6,60.0,91,69,43,32.46,22.47,14,6,22,0.00
2013-7-12,91.0,78.7,67.3,74.2,67.0,59.6,78,68,53,32.48,22.35,15,9,23,0.00
2013-7-13,93.3,82.3,74.3,74.3,71.2,68.5,84,70,49,32.49,21.75,15,9,22,0.00
2013-7-14,83.4,74.5,66.6,70.5,66.2,61.4,93,77,48,32.42,25.14,14,6,21,0.38
2013-7-15,68.3,64.5,61.7,63.9,60.9,58.7,91,88,85,31.44,23.27,4,1,5,0.00
2013-7-27,72.6,66.2,55.7,54.1,50.3,45.9,85,59,39,31.45,20.26,5,2,12,0.00
2013-7-28,75.2,54.5,49.3,59.2,28.7,-99.9,93,57,46,31.78,21.87,7,-155,11,0.00
2013-7-29,65.1,41.6,60.2,63.6,6.7,-99.9,97,63,94,29.13,22.58,10,-337,18,0.23
2013-7-30,75.3,68.6,63.9,67.5,65.0,63.2,98,89,73,31.47,23.13,5,1,9,0.01
2013-7-31,83.5,72.5,62.5,70.2,65.6,61.3,98,81,56,32.37,22.68,5,1,13,0.00
2013-8-1,85.7,72.9,60.2,71.3,65.4,58.2,96,79,50,31.98,22.53,14,4,25,1.05
2013-8-2,80.0,72.1,64.1,69.8,66.5,61.7,95,83,68,24.67,21.63,17,6,27,0.36
2013-8-3,76.4,67.4,60.4,65.9,61.2,58.1,93,81,64,24.81,21.85,10,5,17,0.00
2013-8-4,75.6,67.5,61.8,70.1,63.4,57.6,95,87,80,25.29,23.66,12,6,20,0.00
2013-8-5,83.8,74.7,68.5,75.1,71.1,66.8,97,89,71,24.94,20.20,8,3,14,0.00
2013-8-6,85.7,76.1,66.2,76.0,71.0,65.0,98,85,68,25.73,20.16,10,3,16,0.00
2013-8-7,81.5,73.4,66.6,70.4,64.4,59.0,92,75,48,26.68,20.16,7,2,13,0.00
2013-8-8,76.4,69.3,63.5,67.3,64.4,61.3,94,85,67,25.96,20.21,4,2,7,0.00
2013-8-9,79.8,70.7,62.2,69.6,64.2,58.0,97,81,55,25.91,20.22,6,2,12,0.00
2013-8-10,81.4,70.1,58.1,69.1,63.3,55.8,93,80,58,28.07,21.88,7,3,14,0.00
2013-8-11,83.6,72.5,61.4,70.6,65.7,59.6,94,81,57,24.71,21.86,11,4,18,0.02
2013-8-12,83.0,72.5,64.2,71.8,66.1,61.8,96,81,57,25.35,20.19,8,2,17,0.34
2013-8-13,75.6,68.5,61.8,62.6,60.5,57.5,92,77,56,25.24,23.60,7,3,13,0.00
2013-8-14,72.4,65.1,57.1,65.1,60.5,55.1,94,86,69,26.72,23.71,8,3,14,0.02
2013-8-15,70.7,65.6,60.8,66.3,63.1,59.4,97,92,85,29.41,23.67,9,5,14,0.85
2013-8-16,70.5,64.7,60.3,64.4,61.1,58.8,96,88,78,29.44,23.85,9,4,14,0.00
2013-8-17,76.1,66.6,59.3,65.1,60.6,56.9,95,82,62,32.24,23.67,9,4,15,0.00
2013-8-18,78.1,66.7,54.6,65.7,60.4,52.9,95,81,62,30.91,23.67,9,3,17,0.00
2013-8-19,84.1,72.9,63.1,70.6,66.0,61.0,95,80,60,25.32,20.17,13,6,22,0.00
2013-8-20,87.4,76.3,67.7,72.7,68.6,65.3,93,78,57,24.26,20.18,14,7,23,0.00
2013-8-21,89.7,77.3,67.5,74.3,69.1,65.1,92,77,57,24.90,20.17,11,6,18,0.00
2013-8-22,82.3,74.3,67.6,71.9,68.4,65.6,95,83,64,32.50,21.83,10,4,17,0.08
2013-8-23,86.5,76.7,68.6,74.5,70.4,67.4,97,82,60,32.45,23.09,11,6,20,0.00
2013-8-24,90.2,80.4,72.6,75.5,71.6,69.2,90,75,58,32.30,20.14,12,8,27,0.00
2013-8-25,93.1,81.1,70.7,74.0,70.6,68.0,92,72,49,32.46,28.85,14,7,23,0.00
2013-8-26,94.7,82.2,71.8,72.7,69.7,66.9,88,68,45,32.21,20.66,13,8,22,0.00
2013-8-27,94.8,81.2,71.3,71.5,67.0,64.2,82,64,40,32.29,20.25,14,8,23,0.00
2013-8-28,92.1,77.8,66.6,71.3,66.2,62.2,89,70,41,32.47,21.85,10,4,16,0.00
2013-8-29,95.0,79.6,66.3,76.1,70.8,64.5,97,77,47,32.18,20.27,10,3,15,0.00
2013-8-30,95.2,80.4,68.2,78.4,70.8,64.4,90,74,49,30.58,19.00,8,2,12,0.00
2013-8-31,94.0,80.1,71.6,75.8,71.0,66.0,95,77,41,32.31,19.00,11,1,25,0.00
2013-9-1,83.2,74.6,63.6,71.1,62.4,55.6,92,69,41,32.25,20.13,9,2,18,0.04
2013-9-2,80.4,67.9,56.9,62.0,58.4,54.9,94,74,47,32.47,24.94,5,1,14,0.00
2013-9-3,84.8,69.0,55.0,64.3,59.5,52.8,96,74,46,31.50,18.52,8,3,15,0.00
2013-9-4,82.8,70.0,60.2,69.2,61.9,56.4,91,77,50,32.35,18.52,9,4,16,0.00
2013-9-5,84.6,72.8,62.3,68.6,64.2,59.8,92,76,54,32.25,23.25,9,4,16,0.00
2013-9-6,94.0,78.0,63.6,69.5,65.5,60.9,92,68,42,32.40,20.40,11,6,20,0.00
2013-9-7,95.9,79.1,68.6,72.7,67.4,63.0,92,70,38,29.06,21.84,11,5,16,0.00
2013-9-8,93.9,79.2,68.5,74.6,70.2,64.7,98,76,43,30.61,24.86,7,3,16,0.00
2013-9-9,97.5,82.2,70.7,64.5,60.6,52.9,70,51,23,29.49,20.25,16,9,26,0.00
2013-9-10,96.3,78.0,68.5,70.3,63.0,57.7,95,63,31,27.56,19.22,16,6,23,0.95
2013-9-11,78.6,71.9,67.9,71.2,68.3,66.2,96,89,76,32.28,19.22,8,2,23,0.25
2013-9-12,79.0,69.9,60.3,67.3,58.7,51.3,96,71,39,32.45,20.65,9,2,14,0.01
2013-9-13,73.8,62.5,53.0,55.3,51.9,48.9,88,70,45,32.12,23.46,6,2,11,0.00
2013-9-14,75.9,64.7,53.0,61.1,54.9,50.3,92,72,49,31.00,20.24,11,4,18,0.00
2013-9-15,69.0,64.1,59.0,66.1,59.3,54.0,94,85,75,31.28,21.87,17,4,24,0.51
2013-9-16,61.1,58.3,55.3,55.5,54.0,51.5,97,86,77,32.17,20.30,11,6,16,0.20
2013-9-17,73.0,63.5,56.3,67.7,61.8,55.5,98,94,81,32.19,23.02,11,5,22,0.32
2013-9-18,89.5,76.7,66.3,71.2,67.6,64.3,95,76,51,28.27,20.78,16,9,28,0.00
2013-9-19,77.4,68.2,54.4,65.8,59.8,50.2,92,75,52,32.42,23.40,12,5,25,0.05
2013-9-20,70.7,58.2,46.1,51.7,46.7,43.1,92,69,39,32.07,20.24,11,4,21,0.00
2013-9-21,81.3,61.7,45.5,54.6,49.7,43.3,93,69,32,29.11,20.25,10,3,16,0.00
2013-9-22,80.0,66.0,54.7,54.9,51.8,49.2,92,64,36,24.26,22.15,17,8,28,0.00
2013-9-23,76.7,64.8,52.9,53.9,50.6,45.3,84,62,35,31.09,21.80,18,11,30,0.00
2013-9-24,68.8,60.9,54.3,58.6,55.1,51.2,93,82,69,28.71,21.79,8,2,22,0.00
2013-9-25,78.7,63.3,48.6,61.5,55.6,47.2,98,78,49,31.71,21.87,14,6,23,0.01
2013-9-26,88.6,73.8,62.1,61.3,59.1,57.2,89,63,35,31.36,20.40,18,13,29,0.00
2013-9-27,86.1,75.6,66.3,63.3,60.7,58.8,82,61,46,31.51,22.80,18,12,31,0.04
2013-10-14,59.1,56.4,51.5,58.4,53.9,46.3,98,91,81,23.96,23.48,20,14,32,1.20
2013-10-15,51.5,45.7,41.3,46.4,38.9,35.8,84,77,69,24.14,23.73,19,14,29,0.00
2013-10-16,54.9,45.2,36.9,39.8,34.5,20.8,92,69,27,29.70,22.99,11,5,18,0.00
2013-10-17,56.0,43.4,33.0,43.4,36.5,30.9,99,77,60,29.69,23.04,17,6,25,0.00
2013-10-18,48.8,38.7,32.7,34.1,30.1,25.8,89,73,41,31.13,23.92,9,4,13,0.00
2013-10-19,32.5,31.8,31.1,29.6,28.9,27.9,91,89,85,29.82,24.30,2,2,5,0.00
2013-10-31,57.1,48.1,38.5,45.1,39.1,35.2,98,73,49,29.57,23.57,17,8,25,0.01
2013-11-1,58.4,45.9,38.0,42.1,37.0,33.9,88,73,45,32.33,22.96,23,10,34,0.00
2013-11-2,58.1,43.0,31.5,36.4,31.8,27.4,89,68,31,31.44,24.21,10,5,21,0.00
2013-11-3,58.4,48.1,38.4,39.3,35.0,31.3,77,62,44,31.48,24.52,27,13,40,0.00
2013-11-4,55.3,46.0,37.0,40.7,36.5,30.8,90,70,49,31.42,23.72,9,2,19,0.00
2013-11-5,43.4,38.3,33.0,39.4,35.2,30.0,96,89,72,31.41,23.96,15,7,24,1.50
2013-11-6,39.2,34.1,30.6,34.3,31.0,28.3,94,88,77,29.79,23.97,11,5,21,0.00